Weather History for Arlington, WA

Change the Weather History Date:

Wednesday, May 29, 2013

  Actual Average Record
Temperature  
Mean Temperature 52 °F -  
Max Temperature 53 °F 61 °F 77 °F (2007)
Min Temperature 50 °F 42 °F 35 °F (1999)
Degree Days  
Heating Degree Days 14    
Growing Degree Days 2 (Base 50)    
Moisture  
Dew Point 47 °F    
Average Humidity 84    
Maximum Humidity 94    
Minimum Humidity 77    
Precipitation  
Precipitation 0.07 in - - ()
Sea Level Pressure  
Sea Level Pressure 29.82 in    
Wind  
Wind Speed 1 mph (WSW)    
Max Wind Speed 8 mph    
Max Gust Speed -    
Visibility 9 miles    
Events      
Averages and records for this station are not official NWS values.
T = Trace of Precipitation, MM = Missing Value Source: NWS Daily Summary

Daily Weather History Graph

Daily Weather History Graph

Search for Another Location

Airport:

Trip Planner

Search our weather history database for the weather conditions in past years. The results will help you decide how hot, cold, wet, or windy it might be!

Date:

Astronomy

May. 29, 2013 Rise Set
Actual Time 5:14 AM PDT 8:58 PM PDT
Civil Twilight 4:34 AM PDT 9:38 PM PDT
Nautical Twilight 3:41 AM PDT 10:32 PM PDT
Astronomical Twilight 2:24 AM PDT 11:50 PM PDT
Moon 12:12 AM PDT (5/29) 10:33 AM PDT (5/29)
Length of Visible Light 17h 03m
Length of Day
15h 43m
Waning Gibbous, 72% of the Moon is Illuminated
May 29
Waning Gibbous
May 31
Last Quarter
Jun 8
New
Jun 16
First Quarter
Jun 23
Full

Hourly Weather History & Observations

Time (PDT) Temp. Dew Point Humidity Pressure Visibility Wind Dir Wind Speed Gust Speed Precip Events Conditions
12:15 AM 53.6 °F 46.4 °F 77% 29.79 in 10.0 mi SSW 4.6 mph - N/A   Unknown
12:35 AM 53.6 °F 46.4 °F 77% 29.78 in 10.0 mi South 3.5 mph - N/A   Unknown
12:55 AM 53.6 °F 46.4 °F 77% 29.77 in 10.0 mi SSE 3.5 mph - N/A   Unknown
1:15 AM 53.6 °F 46.4 °F 77% 29.77 in 10.0 mi Calm Calm - N/A   Unknown
1:35 AM 53.6 °F 46.4 °F 77% 29.76 in 10.0 mi Calm Calm - N/A   Unknown
1:55 AM 53.6 °F 46.4 °F 77% 29.75 in 10.0 mi East 3.5 mph - N/A   Unknown
2:15 AM 53.6 °F 46.4 °F 77% 29.75 in 10.0 mi Calm Calm - N/A   Unknown
2:35 AM 51.8 °F 46.4 °F 82% 29.74 in 5.0 mi Calm Calm - N/A   Unknown
2:55 AM 51.8 °F 46.4 °F 82% 29.73 in 10.0 mi Calm Calm - N/A   Unknown
3:15 AM 51.8 °F 48.2 °F 88% 29.73 in 10.0 mi Calm Calm - N/A   Unknown
3:35 AM 51.8 °F 46.4 °F 82% 29.72 in 10.0 mi Calm Calm - N/A   Unknown
3:55 AM 51.8 °F 46.4 °F 82% 29.71 in 10.0 mi Calm Calm - N/A   Unknown
4:15 AM 51.8 °F 46.4 °F 82% 29.70 in 10.0 mi Calm Calm - N/A   Unknown
4:35 AM 50.0 °F 46.4 °F 87% 29.70 in 10.0 mi Calm Calm - N/A   Unknown
4:55 AM 51.8 °F 46.4 °F 82% 29.70 in 10.0 mi Calm Calm - N/A   Unknown
5:15 AM 51.8 °F 48.2 °F 88% 29.70 in 10.0 mi Calm Calm - N/A   Unknown
5:35 AM 51.8 °F 48.2 °F 88% 29.70 in 10.0 mi Calm Calm - N/A   Unknown
5:55 AM 51.8 °F 46.4 °F 82% 29.71 in 10.0 mi West 5.8 mph - N/A   Unknown
6:15 AM 51.8 °F 46.4 °F 82% 29.71 in 10.0 mi West 5.8 mph - N/A   Unknown
6:35 AM 51.8 °F 46.4 °F 82% 29.72 in 10.0 mi Calm Calm - N/A   Unknown
6:55 AM 51.8 °F 46.4 °F 82% 29.72 in 10.0 mi Calm Calm - N/A   Unknown
7:15 AM 51.8 °F 46.4 °F 82% 29.72 in 10.0 mi Calm Calm - N/A   Unknown
7:35 AM 51.8 °F 46.4 °F 82% 29.72 in 10.0 mi Calm Calm - N/A   Unknown
7:55 AM 51.8 °F 46.4 °F 82% 29.73 in 10.0 mi Calm Calm - N/A   Unknown
8:15 AM 51.8 °F 46.4 °F 82% 29.73 in 10.0 mi Calm Calm - N/A   Unknown
8:35 AM 51.8 °F 46.4 °F 82% 29.73 in 9.0 mi Calm Calm - N/A   Unknown
8:55 AM 51.8 °F 46.4 °F 82% 29.74 in 10.0 mi Calm Calm - N/A   Unknown
9:15 AM 51.8 °F 46.4 °F 82% 29.74 in 10.0 mi Calm Calm - N/A   Unknown
9:35 AM 51.8 °F 48.2 °F 88% 29.75 in 10.0 mi Calm Calm - N/A   Unknown
9:55 AM 51.8 °F 48.2 °F 88% 29.75 in 10.0 mi Calm Calm - N/A   Unknown
10:15 AM 51.8 °F 48.2 °F 88% 29.76 in 5.0 mi Calm Calm - N/A   Unknown
10:35 AM 51.8 °F 48.2 °F 88% 29.76 in 5.0 mi Calm Calm - N/A   Unknown
10:55 AM 53.6 °F 48.2 °F 82% 29.76 in 8.0 mi Calm Calm - N/A   Unknown
11:15 AM 53.6 °F 48.2 °F 82% 29.77 in 10.0 mi Calm Calm - N/A   Unknown
11:35 AM 53.6 °F 48.2 °F 82% 29.78 in 10.0 mi Calm Calm - N/A   Unknown
11:55 AM 53.6 °F 48.2 °F 82% 29.78 in 9.0 mi Calm Calm - N/A   Unknown
12:15 PM 51.8 °F 48.2 °F 88% 29.79 in 5.0 mi Calm Calm - 0.03 in   Unknown
12:35 PM 51.8 °F 48.2 °F 88% 29.80 in 10.0 mi Calm Calm - 0.03 in   Unknown
12:55 PM 53.6 °F 48.2 °F 82% 29.81 in 7.0 mi Calm Calm - 0.03 in   Unknown
1:15 PM 53.6 °F 48.2 °F 82% 29.81 in 10.0 mi Calm Calm - N/A   Unknown
1:35 PM 53.6 °F 48.2 °F 82% 29.82 in 10.0 mi WSW 3.5 mph - N/A   Unknown
1:55 PM 53.6 °F 48.2 °F 82% 29.83 in 10.0 mi Calm Calm - N/A   Unknown
2:15 PM 53.6 °F 48.2 °F 82% 29.84 in 10.0 mi West 8.1 mph - N/A   Unknown
2:35 PM 53.6 °F 48.2 °F 82% 29.85 in 10.0 mi West 4.6 mph - N/A   Unknown
2:55 PM 53.6 °F 48.2 °F 82% 29.86 in 10.0 mi West 3.5 mph - N/A   Unknown
3:15 PM 53.6 °F 48.2 °F 82% 29.86 in 10.0 mi Calm Calm - N/A   Unknown
3:35 PM 53.6 °F 48.2 °F 82% 29.87 in 10.0 mi Calm Calm - N/A   Unknown
3:55 PM 53.6 °F 48.2 °F 82% 29.88 in 10.0 mi Calm Calm - N/A   Unknown
4:15 PM 53.6 °F 48.2 °F 82% 29.89 in 10.0 mi Calm Calm - N/A   Unknown
4:35 PM 51.8 °F 48.2 °F 88% 29.89 in 10.0 mi NW 3.5 mph - N/A   Unknown
4:55 PM 51.8 °F 46.4 °F 82% 29.89 in 8.0 mi Calm Calm - 0.01 in   Unknown
5:15 PM 51.8 °F 48.2 °F 88% 29.90 in 9.0 mi Calm Calm - 0.01 in   Unknown
5:35 PM 51.8 °F 46.4 °F 82% 29.90 in 9.0 mi Calm Calm - 0.01 in   Unknown
5:55 PM 51.8 °F 46.4 °F 82% 29.91 in 9.0 mi Calm Calm - 0.01 in   Unknown
6:15 PM 51.8 °F 48.2 °F 88% 29.91 in 10.0 mi Calm Calm - N/A   Unknown
6:35 PM 51.8 °F 46.4 °F 82% 29.91 in 10.0 mi Calm Calm - N/A   Unknown
6:55 PM 51.8 °F 48.2 °F 88% 29.92 in 10.0 mi Calm Calm - N/A   Unknown
7:15 PM 51.8 °F 48.2 °F 88% 29.92 in 9.0 mi Calm Calm - N/A   Unknown
7:35 PM 51.8 °F 48.2 °F 88% 29.93 in 10.0 mi Calm Calm - 0.01 in   Unknown
7:55 PM 51.8 °F 48.2 °F 88% 29.94 in 8.0 mi Calm Calm - 0.01 in   Unknown
8:15 PM 51.8 °F 48.2 °F 88% 29.94 in 5.0 mi Calm Calm - N/A   Unknown
8:35 PM 51.8 °F 48.2 °F 88% 29.94 in 5.0 mi Calm Calm - N/A   Unknown
8:55 PM 51.8 °F 46.4 °F 82% 29.95 in 2.0 mi Calm Calm - N/A   Unknown
9:15 PM 51.8 °F 48.2 °F 88% 29.95 in 5.0 mi Calm Calm - 0.01 in   Unknown
9:35 PM 50.0 °F 48.2 °F 94% 29.96 in 8.0 mi Calm Calm - 0.01 in   Unknown
9:55 PM 50.0 °F 48.2 °F 94% 29.96 in 10.0 mi Calm Calm - 0.01 in   Unknown
10:15 PM 50.0 °F 46.4 °F 87% 29.97 in 8.0 mi Calm Calm - N/A   Unknown
10:35 PM 50.0 °F 46.4 °F 87% 29.97 in 10.0 mi Calm Calm - N/A   Unknown
10:55 PM 50.0 °F 46.4 °F 87% 29.98 in 8.0 mi Calm Calm - N/A   Unknown
11:15 PM 50.0 °F 46.4 °F 87% 29.98 in 7.0 mi Calm Calm - N/A   Unknown
11:35 PM 50.0 °F 48.2 °F 94% 29.98 in 10.0 mi Calm Calm - N/A   Unknown
11:55 PM 50.0 °F 48.2 °F 94% 29.99 in 8.0 mi Calm Calm - N/A   Unknown